Mc Allen Miller International Airport
KMFE : now visible

Airfield :











YOU CAN JOIN US ON...

 
LOGIN :

Register | Disclaimer

   EN    FR    IT 

 









Legend :    VFR   Marginal VFR   IFR   Intensive IFR   Very Intensive IFR
Visi :
Ceiling :
>= 8 km
>= 3000ft
5 to 8 km
1000 to 3000 ft
1500m to 5 km
500 to 1000 ft
800 to 1500m
200 to 500 ft
< 800m
< 200 ft
Symbols :   Thunderstorms  Fog  Heavy snow  Heavy precipitations  Wind > 20 kt






- Airport Elevation : 107 ft
- IATA code : MFE


KMFE - Mc Allen Miller International

CURRENT METAR :
  • 231740Z 16009KT 10SM BKN022 30/24 A2996 RMK AO2 T03000239

EXPIRED METARs :
  • 231653Z 14012KT 10SM CLR 29/23 A2995 RMK AO2 SLP141 T02940233
  • 231553Z 13010KT 9SM CLR 27/22 A2996 RMK AO2 SLP145 T02720222

TAF KMFE
Valid from the 23 at 18:00 until the 24 at 18:00 UTC


231720Z 2318/2418 14012KT P6SM VCSH FEW040 BKN150
FM232200 13013KT P6SM SCT150
FM240000 13013KT P6SM FEW250
FM240800 13008KT P6SM BKN022
FM241500 15014KT P6SM FEW025 SCT250
KZHU FIR / North America



MET'MAP, your aeronautical weather chart ! - Copyright ORBIFLY December 2007 - Disclaimer

ORBIFLY MET'MAP TEAM :

Programming & Development : Alexandra Zaïnal
Concept & original design : Baudouin d'Aumeries
Assistance for programming : Marc-Olivier Méhu
Technical & hardware support : Manuel Goepfert

Contact : metmap@orbifly.com




SOURCES & CREDITS :

   NOAA       Earth
Advisory